Regional Weather Roundup
Issued by NWS

Home | Current Version | Previous Version | Graphics & Text | Print | Product List | Glossary On
Versions: 1 2 3 4 5 6 7 8 9 10 11 12 13 14 15 16 17 18 19 20 21 22 23 24 25 26 27 28 29 30 31 32 33 34 35 36 37 38 39 40 41 42 43 44 45 46 47 48 49 50
000
ASUS45 KABQ 300710
RWRNM
NEW MEXICO REGIONAL WEATHER ROUNDUP
NATIONAL WEATHER SERVICE ALBUQUERQUE NM
100 AM MDT THU JUL 30 2015

NOTE: "FAIR" MEANS FEW OR NO CLOUDS BELOW 12,000 FEET AGL WITH NO
       SIGNIFICANT WEATHER OR OBSTRUCTIONS TO VISION.

      THIS PRODUCT IS RELEASED AS TWO VERSIONS.  ONE VERSION NEAR
      THE TOP OF THE HOUR CONTAINING PRELIMINARY DATA FROM ALBUQUERQUE
      AND OTHER STATIONS.  A FINAL VERSION WITH ADDITIONAL DATA IS
      ISSUED ABOUT 10 MINUTES AFTER THE HOUR.

NMZ501-503-504-510>518-300800-
NORTHWEST PLATEAU/NORTHCENTRAL MOUNTAINS

CITY           SKY/WX    TMP DP  RH WIND       PRES   REMARKS
FARMINGTON     CLEAR     67  53  61 E7        30.33R
LOS ALAMOS     LGT RAIN  58  58 100 S5        30.51S
SANTA FE       LGT RAIN  60  57  89 E6        30.45F
TAOS           CLOUDY    59  46  63 W7        30.50R
ANGEL FIRE     LGT RAIN  53  51  92 NW7       30.56F

$$
NMZ402-403-502-505>509-300800-
WESTCENTRAL MOUNTAINS/SOUTHWEST MOUNTAINS

CITY           SKY/WX    TMP DP  RH WIND       PRES   REMARKS
GALLUP         LGT RAIN  61  56  83 NW3       30.40R
GRANTS         CLOUDY    60  60  99 S8        30.42S
SILVER CITY      N/A     64  61  88 E10       30.36R

$$
NMZ407-409-411-412-300800-
SOUTHERN DESERTS

CITY           SKY/WX    TMP DP  RH WIND       PRES   REMARKS
LORDSBURG      RAIN      66  64  94 W5        30.29R
DEMING         CLOUDY    69  62  78 NE15      30.26S
LAS CRUCES     RAIN      66  64  94 N8        30.29S
ALAMOGORDO     MOCLDY    73  57  56 NW12      30.22R
T OR C         HVY RAIN  66  62  87 W8        30.35R FOG

$$
NMZ519>523-300800-
CENTRAL VALLEYS/CENTRAL HIGHLANDS

CITY           SKY/WX    TMP DP  RH WIND       PRES   REMARKS
ALBUQUERQUE    CLOUDY    67  59  75 E28       30.35F
DOUBLE EAGLE   CLOUDY    62  60  91 NE8       30.39F
MORIARTY ARPT    N/A     60  56  88 NE10      30.45F
CLINES CORNERS LGT RAIN  57  56  96 NE17      30.46F
BELEN          CLOUDY    66  62  86 CALM      30.35F
SOCORRO        LGT RAIN  67  63  85 CALM      30.34R

$$
NMZ524>526-539-540-300800-
SOUTHCENTRAL MOUNTAINS

CITY           SKY/WX    TMP DP  RH WIND       PRES   REMARKS
RUIDOSO          N/A    N/A N/A N/A MISG        N/A

$$
NMZ527>531-300800-
NORTHEAST HIGHLANDS/NORTHEAST PLAINS

CITY           SKY/WX    TMP DP  RH WIND       PRES   REMARKS
LAS VEGAS      LGT RAIN  57  55  93 NW5       30.51F
RATON          CLOUDY    58  57  97 CALM      30.44S
CLAYTON        CLOUDY    68  65  90 NE3       30.34F

$$
NMZ532>537-300800-
EASTCENTRAL PLAINS

CITY           SKY/WX    TMP DP  RH WIND       PRES   REMARKS
TUCUMCARI      TSTM      68  64  87 W17       30.28S
CANNON AFB     CLOUDY    75  65  71 E12       30.25F
CLOVIS AIRPORT MOCLDY    72  63  73 E10       30.26F

$$
NMZ028-029-538-300800-
SOUTHEAST PLAINS

CITY           SKY/WX    TMP DP  RH WIND       PRES   REMARKS
ROSWELL        CLOUDY    79  62  56 N17       30.19R
ARTESIA        MOCLDY    82  59  44 SE9       30.16S
CARLSBAD       CLEAR     77  63  61 E6        30.13R
HOBBS          PTCLDY    75  63  64 E8        30.19R


$$


USA.gov is the U.S. government's official web portal to all federal, state and local government web resources and services.